Weather Roundup
Issued by NWS Chicago, IL

Home | Current Version | Previous Version | Text Only | Print | Product List | Glossary On
Versions: 1 2 3 4 5 6 7 8 9 10 11 12 13 14 15 16 17 18 19 20 21 22 23 24 25 26 27 28 29 30 31 32 33 34 35 36 37 38 39 40 41 42 43 44 45 46 47 48 49 50
000
NZUS59 KLOT 220904
HRRLOT

CHICAGO AREA WEATHER ROUNDUP
NATIONAL WEATHER SERVICE CHICAGO/ROMEOVILLE IL
400 AM CDT FRI SEP 22 2017

NOTE: "FAIR" INDICATES FEW OR NO CLOUDS BELOW 12,000 FEET WITH NO
SIGNIFICANT WEATHER AND/OR OBSTRUCTIONS TO VISIBILITY.

* THESE STATIONS ARE NOT UNDER NWS QUALITY CONTROL. THEY ALSO MAY NOT
  REPORT WEATHER SUCH AS PRECIPITATION OR FOG.

ILZ005-006-012>014-019>023-221000-
NORTHEAST ILLINOIS

CITY           SKY/WX    TMP DP  RH WIND       PRES   REMARKS
OHARE          CLOUDY    76  68  76 S6        30.04R
MIDWAY         CLOUDY    78  68  71 S5        30.04R HX  80
AURORA         CLOUDY    71  69  93 SE3       30.05R
LANSING*       CLEAR     71  68  90 CALM      30.06R
JOLIET*        CLOUDY    72  70  93 CALM      30.05R
WAUKEGAN       CLOUDY    70  70 100 CALM      30.03R FOG
DUPAGE AIRPORT CLOUDY    73  70  90 S5        30.04R
WHEELING       CLOUDY    76  70  82 S6        30.04R
MORRIS*        MOCLDY    71  69  91 CALM      30.04R
NORTHERLY ISL    N/A     77  65  66 SW7         N/A
$$

WIZ051-052-058>065-066-070>072-221000-
SOUTHEAST WISCONSIN

CITY           SKY/WX    TMP DP  RH WIND       PRES   REMARKS
MILWAUKEE      PTCLDY    71  69  93 CALM      30.03R FOG
KENOSHA*       CLOUDY    70  68  93 SE3       30.04R FOG
RACINE*        CLEAR     71  70  96 CALM      30.05R FOG
$$

INZ001>003-010>013-019-020-221000-
NORTHWEST INDIANA

CITY           SKY/WX    TMP DP  RH WIND       PRES   REMARKS
GARY*          CLEAR     68  67  96 CALM      30.06R FOG
MICHIGAN CITY* NOT AVBL
RENSSELAER*    NOT AVBL
VALPARAISO     CLEAR     68  67  96 CALM      30.07R
$$

LMZ740>746-221000-
SOUTHERN LAKE MICHIGAN

STATION/POSITION TIME  SKY/WX   TEMP WIND        PRES    VSBY
                                AIR  DIR/SP/G
                 (UTC)          (F)  (DEG/KT/KT) (MB)    (MI)
HARRISON CRIB    0840            78  190/ 12/ 13   N/A
BURNHAM HARBOR   0900            77                N/A
CALUMET HARBOR   0830            77  180/  4/  5 1016.8R
BURNS HARBOR     0840            76  190/  8/  9 1017.9S
MICHIGAN CITY    0840            78  160/  8/ 11   N/A
$$

ABBREVIATIONS USED IN REMARKS
   TC - TEMPERATURE IN CELSIUS
  WCI - WIND CHILL INDEX
   HX - HEAT INDEX
  VSB - VISIBILITY
$$




USA.gov is the U.S. government's official web portal to all federal, state and local government web resources and services.